Weather History for KLWA - January, 2013

Change the Weather History Date:

Thursday, January 10, 2013

  Actual Average (KBIV) Record (KBIV)
Temperature  
Mean Temperature 33 °F 26 °F  
Max Temperature 43 °F 32 °F - ()
Min Temperature 23 °F 21 °F - ()
Degree Days  
Heating Degree Days 32 39  
Month to date heating degree days 381  
Since 1 July heating degree days 2649  
Cooling Degree Days 0 0  
Month to date cooling degree days 0  
Year to date cooling degree days 0  
Moisture  
Dew Point 27 °F    
Average Humidity 79    
Maximum Humidity 96    
Minimum Humidity 51    
Precipitation  
Precipitation 0.00 in 0.07 in - ()
Month to date precipitation 0.70  
Year to date precipitation 0.70  
Sea Level Pressure  
Sea Level Pressure 30.36 in    
Wind  
Wind Speed 4 mph (ESE)    
Max Wind Speed 18 mph    
Max Gust Speed 24 mph    
Visibility 10 miles    
Events Rain    
T = Trace of Precipitation, MM = Missing Value Source: NWS Daily Summary

Daily Weather History Graph

Daily Weather History Graph

Search for Another Location

Airport or City:

Trip Planner

Search our weather history database for the weather conditions in past years. The results will help you decide how hot, cold, wet, or windy it might be!

Date:

Astronomy

Jan. 10, 2013 Rise Set
Actual Time 8:13 AM EST 5:32 PM EST
Civil Twilight 7:41 AM EST 6:03 PM EST
Nautical Twilight 7:07 AM EST 6:38 PM EST
Astronomical Twilight 6:33 AM EST 7:12 PM EST
Moon 6:52 AM EST (1/10) 4:39 PM EST (1/10)
Length of Visible Light 10h 21m
Length of Day
9h 19m
Waning Crescent, 2% of the Moon is Illuminated
Jan 10
Waning Crescent
Jan 11
New
Jan 18
First Quarter
Jan 26
Full
Feb 3
Last Quarter

Hourly Weather History & Observations

Time (EST) Temp. Windchill Dew Point Humidity Pressure Visibility Wind Dir Wind Speed Gust Speed Precip Events Conditions
12:14 AM 31.8 °F - 27.3 °F 83% 30.45 in 10.0 mi Calm Calm - N/A   Clear
12:35 AM 28.2 °F - 25.9 °F 91% 30.47 in 10.0 mi Calm Calm - N/A   Clear
12:54 AM 27.7 °F - 25.7 °F 92% 30.48 in 10.0 mi Calm Calm - N/A   Clear
1:15 AM 27.5 °F - 25.5 °F 92% 30.50 in 10.0 mi Calm Calm - N/A   Clear
1:34 AM 27.5 °F - 25.3 °F 92% 30.50 in 10.0 mi Calm Calm - N/A   Clear
1:55 AM 26.4 °F - 24.4 °F 92% 30.50 in 10.0 mi Calm Calm - N/A   Clear
2:15 AM 26.6 °F - 24.8 °F 93% 30.51 in 10.0 mi Calm Calm - N/A   Clear
2:35 AM 26.4 °F - 24.6 °F 93% 30.51 in 10.0 mi Calm Calm - N/A   Clear
2:55 AM 25.9 °F - 24.4 °F 94% 30.51 in 10.0 mi Calm Calm - N/A   Clear
3:14 AM 25.7 °F - 24.3 °F 94% 30.52 in 10.0 mi Calm Calm - N/A   Clear
3:35 AM 25.7 °F - 24.4 °F 95% 30.51 in 10.0 mi Calm Calm - N/A   Clear
3:55 AM 24.3 °F - 23.0 °F 95% 30.51 in 10.0 mi Calm Calm - N/A   Clear
4:14 AM 24.8 °F - 23.7 °F 96% 30.50 in 10.0 mi Calm Calm - N/A   Clear
4:35 AM 24.8 °F - 23.5 °F 95% 30.50 in 10.0 mi Calm Calm - N/A   Clear
4:55 AM 25.2 °F - 24.1 °F 96% 30.50 in 10.0 mi Calm Calm - N/A   Clear
5:15 AM 24.8 °F - 23.7 °F 96% 30.50 in 10.0 mi Calm Calm - N/A   Clear
5:35 AM 23.7 °F - 22.3 °F 94% 30.50 in 10.0 mi Calm Calm - N/A   Clear
5:54 AM 23.4 °F - 22.1 °F 95% 30.50 in 10.0 mi Calm Calm - N/A   Clear
6:15 AM 24.6 °F - 23.5 °F 96% 30.50 in 10.0 mi Calm Calm - N/A   Clear
6:35 AM 23.2 °F - 21.9 °F 95% 30.50 in 10.0 mi Calm Calm - N/A   Clear
6:54 AM 24.3 °F - 23.0 °F 95% 30.50 in 10.0 mi Calm Calm - N/A   Clear
7:15 AM 24.1 °F - 23.0 °F 96% 30.50 in 10.0 mi Calm Calm - N/A   Clear
7:35 AM 23.9 °F - 22.3 °F 94% 30.50 in 10.0 mi Calm Calm - N/A   Clear
7:55 AM 24.1 °F 19.7 °F 22.8 °F 95% 30.49 in 10.0 mi East 3.5 mph - N/A   Clear
8:15 AM 27.0 °F 21.6 °F 25.3 °F 94% 30.49 in 10.0 mi East 4.6 mph - N/A   Clear
8:34 AM 26.6 °F - 25.0 °F 94% 30.50 in 10.0 mi Calm Calm - N/A   Clear
8:55 AM 27.1 °F - 25.5 °F 94% 30.50 in 10.0 mi Calm Calm - N/A   Clear
9:15 AM 27.9 °F - 26.1 °F 93% 30.51 in 10.0 mi Calm Calm - N/A   Clear
9:34 AM 30.2 °F 26.7 °F 27.5 °F 90% 30.51 in 10.0 mi ESE 3.5 mph - N/A   Clear
9:55 AM 31.5 °F 26.8 °F 28.2 °F 88% 30.50 in 10.0 mi ESE 4.6 mph - N/A   Clear
10:15 AM 32.0 °F 27.5 °F 28.4 °F 87% 30.49 in 10.0 mi East 4.6 mph - N/A   Clear
10:55 AM 34.9 °F 27.7 °F 29.5 °F 81% 30.47 in 10.0 mi ESE 9.2 mph - N/A   Clear
11:15 AM 37.0 °F 31.0 °F 30.2 °F 76% 30.46 in 10.0 mi ESE 8.1 mph - N/A   Clear
11:35 AM 38.5 °F 31.6 °F 29.3 °F 70% 30.45 in 10.0 mi ESE 10.4 mph - N/A   Clear
11:55 AM 40.5 °F 34.1 °F 28.4 °F 62% 30.44 in 10.0 mi SE 10.4 mph 16.1 mph N/A   Clear
12:15 PM 41.5 °F 35.0 °F 28.0 °F 59% 30.42 in 10.0 mi SE 11.5 mph 16.1 mph N/A   Clear
12:34 PM 41.0 °F 34.3 °F 26.8 °F 57% 30.41 in 10.0 mi SE 11.5 mph - N/A   Clear
12:55 PM 41.9 °F 35.9 °F 25.7 °F 53% 30.38 in 10.0 mi SE 10.4 mph 16.1 mph N/A   Clear
1:14 PM 43.0 °F 36.8 °F 26.1 °F 51% 30.36 in 10.0 mi ESE 11.5 mph 16.1 mph N/A   Clear
1:35 PM 41.9 °F 35.4 °F 25.9 °F 53% 30.35 in 10.0 mi ESE 11.5 mph - N/A   Clear
1:54 PM 41.9 °F 36.3 °F 26.1 °F 53% 30.36 in 10.0 mi SE 9.2 mph - N/A   Clear
2:35 PM 41.9 °F 35.9 °F 26.8 °F 55% 30.32 in 10.0 mi ESE 10.4 mph 16.1 mph N/A   Clear
2:54 PM 42.1 °F 35.7 °F 27.3 °F 56% 30.32 in 10.0 mi SE 11.5 mph 17.3 mph N/A   Clear
3:15 PM 42.4 °F 37.0 °F 27.5 °F 56% 30.30 in 10.0 mi ESE 9.2 mph 18.4 mph N/A   Clear
3:34 PM 42.3 °F 36.3 °F 27.3 °F 56% 30.30 in 10.0 mi ESE 10.4 mph 16.1 mph N/A   Clear
3:55 PM 41.4 °F 35.7 °F 27.9 °F 59% 30.29 in 10.0 mi ESE 9.2 mph - N/A   Clear
4:15 PM 41.2 °F 35.0 °F 27.5 °F 58% 30.27 in 10.0 mi ESE 10.4 mph 17.3 mph N/A   Clear
4:35 PM 41.0 °F 34.7 °F 27.3 °F 58% 30.26 in 10.0 mi ESE 10.4 mph 18.4 mph N/A   Clear
4:55 PM 40.6 °F 33.8 °F 27.0 °F 58% 30.25 in 10.0 mi ESE 11.5 mph 20.7 mph N/A   Clear
5:14 PM 40.5 °F 35.1 °F 26.8 °F 58% 30.24 in 10.0 mi ESE 8.1 mph - N/A   Clear
5:35 PM 40.1 °F 34.1 °F 27.1 °F 60% 30.24 in 10.0 mi ESE 9.2 mph 16.1 mph N/A   Scattered Clouds
5:55 PM 39.6 °F 32.5 °F 27.5 °F 62% 30.23 in 10.0 mi ESE 11.5 mph 17.3 mph N/A   Scattered Clouds
6:14 PM 40.1 °F 33.2 °F 27.3 °F 60% 30.23 in 10.0 mi ESE 11.5 mph 18.4 mph N/A   Mostly Cloudy
6:35 PM 39.7 °F 32.7 °F 27.5 °F 62% 30.22 in 10.0 mi SE 11.5 mph - N/A   Mostly Cloudy
6:54 PM 39.2 °F 31.2 °F 28.6 °F 66% 30.22 in 10.0 mi SE 13.8 mph 19.6 mph N/A   Light Drizzle
7:14 PM 38.3 °F 30.9 °F 30.4 °F 73% 30.21 in 10.0 mi SE 11.5 mph 19.6 mph N/A Rain Light Rain
7:34 PM 37.0 °F 28.5 °F 32.0 °F 82% 30.18 in 7.0 mi ESE 13.8 mph 19.6 mph N/A Rain Light Rain
7:54 PM 37.0 °F 28.9 °F 32.0 °F 82% 30.17 in 10.0 mi ESE 12.7 mph 18.4 mph N/A Rain Light Rain
8:15 PM 37.0 °F 28.5 °F 32.0 °F 82% 30.15 in 10.0 mi ESE 13.8 mph 21.9 mph N/A Rain Light Rain
8:34 PM 37.2 °F 28.7 °F 32.0 °F 81% 30.13 in 10.0 mi ESE 13.8 mph 19.6 mph N/A Rain Light Rain
8:55 PM 37.6 °F 27.7 °F 32.0 °F 80% 30.12 in 10.0 mi SE 18.4 mph 24.2 mph N/A Rain Light Rain
9:15 PM 37.6 °F 28.8 °F 32.2 °F 81% 30.10 in 10.0 mi ESE 15.0 mph 24.2 mph N/A Rain Rain
9:55 PM 37.6 °F 28.8 °F 32.5 °F 82% 30.07 in 10.0 mi SE 15.0 mph 21.9 mph N/A Rain Light Rain
10:14 PM 37.4 °F 28.2 °F 32.7 °F 83% 30.06 in 4.0 mi ESE 16.1 mph 24.2 mph N/A Rain Light Rain
10:35 PM 37.4 °F 28.9 °F 33.1 °F 84% 30.05 in 10.0 mi SE 13.8 mph 19.6 mph N/A Rain Light Rain
10:54 PM 37.9 °F 30.0 °F 33.4 °F 84% 30.04 in 10.0 mi SE 12.7 mph 20.7 mph N/A Rain Rain
11:15 PM 37.8 °F 29.8 °F 34.2 °F 87% 30.02 in 7.0 mi SE 12.7 mph 23.0 mph N/A Rain Light Rain
11:35 PM 37.4 °F 29.3 °F 35.1 °F 91% 30.00 in 5.0 mi SE 12.7 mph 20.7 mph N/A Rain Rain